View from above orbital plane
|
View from above satellite
|
Ground track
|
The orbit data is extracted from the following two-line orbital elements,
1 33410U 08053C 21102.53480832 .00001269 00000-0 94680-4 0 9995
2 33410 97.8889 98.0878 0117537 194.2516 165.5383 14.99461178679580
Epoch (UTC): | 12 April 2021 12:50:07 |
Eccentricity: | 0.0117537 |
inclination: | 97.8889° |
perigee height: | 487 km |
apogee height: | 650 km |
right ascension of ascending node: | 98.0878° |
argument of perigee: | 194.2516° |
revolutions per day: | 14.99461178 |
mean anomaly at epoch: | 165.5383° |
orbit number at epoch: | 67958 |
The dashed part of the orbit path shows where the satellite is in the earth's shadow,
|
|